M I D A S
Marine Information and Data Acquisition System
Tripno 2115 of the Zeeleeuw from 2011-06-06 06:29:49 to 2011-06-06 14:13:31
Back to CruiseResearch ActivitiesStationsMapUnderway DataData graphs

EquipmentUnitsComment
TimeDGPSUTC
LatitudeDGPSDM.mWGS84
LongitudeDGPSDM.mWGS84
HeadingGyrodeg 
SOGDGPSknotsSpeed over ground
COGDGPSdegCourse over ground
DepthEcho soundermeters200 kHz
Missing or incorrect values are displayed as -999
Navigation data collected by the RV Zeeleeuw from 2011-06-06 06:30:19 to 2011-06-06 14:23:41
                                                                                    Next 1000 lines
Time Latitude Longitude Heading SOG COG Depth
2011-06-06 06:30:31 51°13.635 2°56.019 127.9 -999 179 7.9
2011-06-06 06:30:35 51°13.635 2°56.019 128.2 0.1 341 7.9
2011-06-06 06:30:40 51°13.635 2°56.019 128.1 -999 13 -999
2011-06-06 06:30:46 51°13.635 2°56.019 127.8 -999 58 7.9
2011-06-06 06:30:51 51°13.635 2°56.019 127.8 -999 18 7.9
2011-06-06 06:30:55 51°13.635 2°56.019 127.7 -999 26 5.9
2011-06-06 06:31:00 51°13.635 2°56.019 127.6 -999 54 7.9
2011-06-06 06:31:05 51°13.635 2°56.019 127.4 -999 6 7.9
2011-06-06 06:31:10 51°13.635 2°56.019 127.3 -999 352 7.9
2011-06-06 06:31:15 51°13.635 2°56.019 127.2 -999 182 7.9
2011-06-06 06:31:20 51°13.635 2°56.019 127.1 -999 277 7.9
2011-06-06 06:31:25 51°13.635 2°56.019 127.1 -999 221 7.9
2011-06-06 06:31:30 51°13.635 2°56.019 127.1 -999 214 7.9
2011-06-06 06:31:35 51°13.635 2°56.019 127.1 -999 169 7.9
2011-06-06 06:31:40 51°13.635 2°56.019 127.1 -999 29 7.9
2011-06-06 06:31:45 51°13.635 2°56.019 127.1 -999 108 7.9
2011-06-06 06:31:50 51°13.635 2°56.019 126.9 -999 127 7.9
2011-06-06 06:31:55 51°13.635 2°56.019 126.3 0.1 119 5.9
2011-06-06 06:31:59 51°13.636 2°56.019 125.6 -999 71 7.9
2011-06-06 06:32:05 51°13.636 2°56.019 124.6 0.1 103 7.9
2011-06-06 06:32:10 51°13.635 2°56.019 123.6 0.1 177 7.9
2011-06-06 06:32:15 51°13.636 2°56.019 122.5 -999 197 7.9
2011-06-06 06:32:20 51°13.636 2°56.019 121.9 -999 210 7.9
2011-06-06 06:32:25 51°13.635 2°56.019 121.3 -999 205 7.9
2011-06-06 06:32:30 51°13.635 2°56.019 120.6 -999 232 7.9
2011-06-06 06:32:35 51°13.635 2°56.019 119.8 0.1 206 7.9
2011-06-06 06:32:40 51°13.635 2°56.019 119 0.1 193 7.9
2011-06-06 06:32:45 51°13.634 2°56.019 118.1 0.1 189 7.9
2011-06-06 06:32:50 51°13.634 2°56.019 117.3 0.1 198 7.9
2011-06-06 06:32:55 51°13.633 2°56.019 116.4 0.1 193 7.9
2011-06-06 06:32:59 51°13.633 2°56.019 115.5 0.1 188 -999
2011-06-06 06:33:05 51°13.633 2°56.019 114.6 0.1 190 7.9
2011-06-06 06:33:10 51°13.633 2°56.019 113.7 0.1 190 7.9
2011-06-06 06:33:15 51°13.633 2°56.019 112.8 0.1 185 7.9
2011-06-06 06:33:19 51°13.633 2°56.019 111.9 -999 207 7.9
2011-06-06 06:33:25 51°13.633 2°56.018 111.1 0.2 275 7.9
2011-06-06 06:33:30 51°13.633 2°56.017 110.4 0.8 290 7.9
2011-06-06 06:33:35 51°13.634 2°56.014 110 1.2 290 8
2011-06-06 06:33:40 51°13.634 2°56.01 110 1.9 290 8.1
2011-06-06 06:33:45 51°13.635 2°56.005 110 2.6 292 8.4
2011-06-06 06:33:51 51°13.637 2°55.998 110.4 3.1 292 -999
2011-06-06 06:33:56 51°13.639 2°55.991 110.7 3.6 292 -999
2011-06-06 06:34:02 51°13.642 2°55.981 110.7 4 291 -999
2011-06-06 06:34:07 51°13.644 2°55.972 110.4 4.3 292 -999
2011-06-06 06:34:13 51°13.647 2°55.961 110.7 4.6 292 -999
2011-06-06 06:34:19 51°13.65 2°55.95 111.1 4.8 293 -999
2011-06-06 06:34:23 51°13.652 2°55.941 111.2 4.9 293 -999
2011-06-06 06:34:29 51°13.656 2°55.929 111.5 5 293 -999
2011-06-06 06:34:34 51°13.658 2°55.919 111.7 5 293 -999
2011-06-06 06:34:39 51°13.661 2°55.909 111.7 5 293 -999
2011-06-06 06:34:43 51°13.663 2°55.901 111.7 4.9 292 -999
2011-06-06 06:34:49 51°13.666 2°55.889 111.4 4.9 291 -999
2011-06-06 06:34:54 51°13.669 2°55.879 111.1 4.8 291 -999
2011-06-06 06:34:59 51°13.671 2°55.869 110.3 4.8 290 -999
2011-06-06 06:35:03 51°13.673 2°55.862 109.5 4.7 290 -999
2011-06-06 06:35:09 51°13.675 2°55.85 108.7 4.7 290 -999
2011-06-06 06:35:14 51°13.678 2°55.84 108.1 4.6 289 -999
2011-06-06 06:35:19 51°13.68 2°55.831 107.4 4.4 288 -999
2011-06-06 06:35:23 51°13.681 2°55.824 106.8 4.3 288 -999
2011-06-06 06:35:29 51°13.683 2°55.814 106.2 4.1 288 -999
2011-06-06 06:35:34 51°13.685 2°55.805 105.7 4 287 -999
2011-06-06 06:35:39 51°13.687 2°55.797 105.2 3.9 288 -999
2011-06-06 06:35:43 51°13.688 2°55.79 104.5 3.9 287 -999
2011-06-06 06:35:49 51°13.69 2°55.78 103.7 3.8 287 -999
2011-06-06 06:35:54 51°13.691 2°55.772 102.7 3.8 286 12.1
2011-06-06 06:35:59 51°13.692 2°55.764 101.9 3.7 285 -999
2011-06-06 06:36:03 51°13.693 2°55.758 100.6 3.6 283 -999
2011-06-06 06:36:09 51°13.695 2°55.749 98.9 3.4 283 -999
2011-06-06 06:36:14 51°13.696 2°55.743 97.4 2.9 283 -999
2011-06-06 06:36:19 51°13.696 2°55.739 95.9 2.1 281 -999
2011-06-06 06:36:23 51°13.697 2°55.737 92.7 1.2 288 -999
2011-06-06 06:36:29 51°13.697 2°55.735 87.2 0.5 318 -999
2011-06-06 06:36:34 51°13.697 2°55.736 80.7 0.5 18 -999
2011-06-06 06:36:39 51°13.698 2°55.737 73.6 0.8 43 -999
2011-06-06 06:36:43 51°13.698 2°55.738 66.5 0.9 43 12.3
2011-06-06 06:36:49 51°13.7 2°55.74 61.1 1.1 46 -999
2011-06-06 06:36:53 51°13.701 2°55.742 56.6 1.1 44 12.6
2011-06-06 06:36:59 51°13.702 2°55.743 51.4 0.9 42 12.6
2011-06-06 06:37:03 51°13.703 2°55.744 48.1 0.5 40 -999
2011-06-06 06:37:08 51°13.703 2°55.744 45.1 0.1 243 12.7
2011-06-06 06:37:13 51°13.702 2°55.742 42.5 0.6 226 12.7
2011-06-06 06:37:18 51°13.701 2°55.741 39.9 1.1 222 12.6
2011-06-06 06:37:23 51°13.7 2°55.739 37.6 1.5 217 12.5
2011-06-06 06:37:27 51°13.698 2°55.737 35.9 1.9 217 12.3
2011-06-06 06:37:32 51°13.696 2°55.734 34.2 2.1 215 5.1
2011-06-06 06:37:38 51°13.693 2°55.731 32.5 2.2 213 -999
2011-06-06 06:37:43 51°13.691 2°55.728 30.6 1.9 210 -999
2011-06-06 06:37:49 51°13.689 2°55.726 29.5 1.4 213 -999
2011-06-06 06:37:54 51°13.688 2°55.725 29.1 1 217 -999
2011-06-06 06:37:59 51°13.688 2°55.725 27.9 0.1 281 -999
2011-06-06 06:38:03 51°13.689 2°55.725 23.6 0.9 5 -999
2011-06-06 06:38:09 51°13.692 2°55.725 16.6 1.6 6 -999
2011-06-06 06:38:14 51°13.695 2°55.725 9 2.1 -999 -999
2011-06-06 06:38:19 51°13.698 2°55.725 3 2.5 358 -999
2011-06-06 06:38:23 51°13.701 2°55.725 358.5 3 353 -999
2011-06-06 06:38:29 51°13.707 2°55.723 354.2 3.5 349 -999
2011-06-06 06:38:34 51°13.713 2°55.721 350 4 346 -999
2011-06-06 06:38:39 51°13.718 2°55.719 347.5 4.4 344 12.1
2011-06-06 06:38:43 51°13.723 2°55.716 346 4.7 343 12.3
2011-06-06 06:38:48 51°13.73 2°55.713 344.2 5 341 12.4
2011-06-06 06:38:53 51°13.737 2°55.709 343.1 5.4 340 11.7
2011-06-06 06:38:58 51°13.744 2°55.704 341.9 5.7 339 11.3
2011-06-06 06:39:03 51°13.752 2°55.699 341.4 5.9 339 11.5
2011-06-06 06:39:07 51°13.758 2°55.695 340.4 6.1 337 11.2
2011-06-06 06:39:12 51°13.766 2°55.689 339 6.3 336 11.2
2011-06-06 06:39:17 51°13.774 2°55.683 337.4 6.6 334 11.2
2011-06-06 06:39:22 51°13.783 2°55.677 336.2 6.7 334 11.1
2011-06-06 06:39:27 51°13.791 2°55.67 335.5 6.8 333 11
2011-06-06 06:39:31 51°13.798 2°55.664 335.2 6.9 334 11
2011-06-06 06:39:36 51°13.807 2°55.657 335 7.1 334 11
2011-06-06 06:39:41 51°13.816 2°55.65 334.7 7.4 333 11.1
2011-06-06 06:39:46 51°13.826 2°55.643 334.7 7.7 334 10.9
2011-06-06 06:39:51 51°13.836 2°55.635 334.9 7.8 334 10.8
2011-06-06 06:39:55 51°13.844 2°55.629 335.4 7.9 335 10.9
2011-06-06 06:40:00 51°13.854 2°55.622 335.8 8.1 336 10.8
2011-06-06 06:40:05 51°13.864 2°55.615 336.6 8.4 337 10.8
2011-06-06 06:40:10 51°13.875 2°55.607 337.4 8.6 337 10.9
2011-06-06 06:40:15 51°13.886 2°55.6 337.8 8.7 337 11.1
2011-06-06 06:40:19 51°13.895 2°55.594 336.8 8.8 335 11.1
2011-06-06 06:40:25 51°13.909 2°55.584 335.7 8.9 335 11.1
2011-06-06 06:40:30 51°13.92 2°55.575 335.4 9 335 11
2011-06-06 06:40:35 51°13.931 2°55.566 335.4 9.1 335 11
2011-06-06 06:40:40 51°13.943 2°55.558 335.4 9.1 334 11
2011-06-06 06:40:45 51°13.954 2°55.549 335.4 9.1 334 11
2011-06-06 06:40:50 51°13.966 2°55.541 335.4 9.2 335 11
2011-06-06 06:40:55 51°13.977 2°55.532 335.4 9.2 334 11.1
2011-06-06 06:41:00 51°13.989 2°55.523 335.2 9.2 334 11.1
2011-06-06 06:41:05 51°14 2°55.514 334.8 9.3 333 11
2011-06-06 06:41:10 51°14.012 2°55.505 334.6 9.3 334 11
2011-06-06 06:41:15 51°14.023 2°55.496 334.4 9.3 333 10.9
2011-06-06 06:41:20 51°14.035 2°55.487 334.4 9.2 334 10.9
2011-06-06 06:41:25 51°14.046 2°55.478 334.4 9.1 333 10.9
2011-06-06 06:41:30 51°14.057 2°55.468 334 9 333 -999
2011-06-06 06:41:35 51°14.069 2°55.46 334.7 9 334 10.8
2011-06-06 06:41:40 51°14.08 2°55.451 335 9 334 10.8
2011-06-06 06:41:45 51°14.091 2°55.442 335 8.9 334 10.8
2011-06-06 06:41:50 51°14.102 2°55.434 335 8.9 335 10.8
2011-06-06 06:41:55 51°14.113 2°55.426 335.8 8.7 336 10.7
2011-06-06 06:42:00 51°14.124 2°55.418 336.3 8.7 335 10.9
2011-06-06 06:42:05 51°14.135 2°55.411 337.4 8.5 337 10.7
2011-06-06 06:42:10 51°14.146 2°55.403 337.9 8.4 336 10.6
2011-06-06 06:42:15 51°14.157 2°55.396 337.8 8.4 337 10.7
2011-06-06 06:42:19 51°14.165 2°55.39 337.4 8.3 336 10.7
2011-06-06 06:42:25 51°14.178 2°55.381 337.2 8.3 336 10.8
2011-06-06 06:42:30 51°14.188 2°55.374 337.1 8.2 335 10.7
2011-06-06 06:42:35 51°14.199 2°55.366 336.3 8.2 335 -999
2011-06-06 06:42:40 51°14.209 2°55.358 335.6 8.2 334 10.7
2011-06-06 06:42:45 51°14.219 2°55.35 335.2 8.2 334 10.7
2011-06-06 06:42:50 51°14.229 2°55.342 334.7 8.1 333 10.7
2011-06-06 06:42:55 51°14.239 2°55.334 333.4 8.1 332 10.8
2011-06-06 06:43:00 51°14.249 2°55.325 331.8 8 330 10.9
2011-06-06 06:43:05 51°14.258 2°55.316 330.6 8.1 330 10.9
2011-06-06 06:43:11 51°14.27 2°55.304 329.7 8.1 328 10.8
2011-06-06 06:43:15 51°14.277 2°55.296 328.9 8 328 10.8
2011-06-06 06:43:19 51°14.285 2°55.289 328.6 8 327 10.8
2011-06-06 06:43:25 51°14.296 2°55.277 327.8 8 326 10.7
2011-06-06 06:43:30 51°14.304 2°55.266 326.2 7.9 324 10.9
2011-06-06 06:43:35 51°14.313 2°55.256 324.5 7.9 323 10.7
2011-06-06 06:43:40 51°14.322 2°55.246 323.7 7.9 324 10.6
2011-06-06 06:43:45 51°14.331 2°55.235 323.5 7.9 322 10.6
2011-06-06 06:43:51 51°14.341 2°55.222 323.1 7.9 322 -999
2011-06-06 06:43:55 51°14.348 2°55.214 322.4 7.9 321 10.7
2011-06-06 06:44:00 51°14.357 2°55.203 322 7.9 321 -999
2011-06-06 06:44:05 51°14.365 2°55.192 321.7 8 321 10.7
2011-06-06 06:44:10 51°14.374 2°55.18 321.9 8.1 321 10.6
2011-06-06 06:44:15 51°14.383 2°55.169 322.6 8.1 322 10.9
2011-06-06 06:44:20 51°14.392 2°55.158 323.2 8.2 322 10.4
2011-06-06 06:44:25 51°14.401 2°55.147 323.3 8.2 322 10.6
2011-06-06 06:44:30 51°14.41 2°55.136 323.1 8.2 322 10.8
2011-06-06 06:44:35 51°14.419 2°55.125 322.9 8.2 322 10.8
2011-06-06 06:44:39 51°14.426 2°55.116 322.7 8.2 321 11.1
2011-06-06 06:44:45 51°14.436 2°55.103 322.4 8.2 321 11
2011-06-06 06:44:50 51°14.445 2°55.092 322.2 8.2 321 11
2011-06-06 06:44:55 51°14.454 2°55.08 322 8.1 320 10.9
2011-06-06 06:45:00 51°14.462 2°55.069 321.6 7.9 320 10.8
2011-06-06 06:45:05 51°14.47 2°55.057 320.9 8 319 11.5
2011-06-06 06:45:10 51°14.478 2°55.046 321.3 8 320 11.3
2011-06-06 06:45:15 51°14.487 2°55.034 322.6 8.2 321 11.4
2011-06-06 06:45:20 51°14.497 2°55.023 324.8 8.6 324 11.2
2011-06-06 06:45:25 51°14.507 2°55.011 325.3 9.1 324 11.7
2011-06-06 06:45:30 51°14.518 2°54.999 325.4 9.5 324 12.1
2011-06-06 06:45:35 51°14.529 2°54.987 326.5 9.7 325 12.2
2011-06-06 06:45:40 51°14.54 2°54.973 327.8 10.1 323 12
2011-06-06 06:45:45 51°14.551 2°54.958 328.1 10.5 320 11.7
2011-06-06 06:45:50 51°14.563 2°54.943 326.8 11 321 12
2011-06-06 06:45:55 51°14.575 2°54.927 328 11.3 322 12
2011-06-06 06:45:59 51°14.586 2°54.916 330.6 11.5 325 12.2
2011-06-06 06:46:05 51°14.602 2°54.898 332 11.8 325 11.9
2011-06-06 06:46:10 51°14.616 2°54.883 332.3 11.9 326 11.4
2011-06-06 06:46:15 51°14.629 2°54.869 332.3 12.1 326 11.5
2011-06-06 06:46:20 51°14.644 2°54.853 332.5 12.3 327 11.7
2011-06-06 06:46:25 51°14.658 2°54.838 332.3 12.5 326 12.3
2011-06-06 06:46:30 51°14.673 2°54.822 332.3 12.4 327 12.2
2011-06-06 06:46:35 51°14.687 2°54.808 332.2 12.1 327 12
2011-06-06 06:46:40 51°14.7 2°54.794 332.2 11.7 327 11.8
2011-06-06 06:46:45 51°14.714 2°54.78 332.7 11.2 328 11.3
2011-06-06 06:46:50 51°14.727 2°54.767 333.2 11.1 328 11.7
2011-06-06 06:46:55 51°14.74 2°54.754 333.7 11.1 329 12.1
2011-06-06 06:47:00 51°14.753 2°54.741 333.6 11.3 327 11.9
2011-06-06 06:47:05 51°14.766 2°54.727 332.5 11.2 327 12
2011-06-06 06:47:10 51°14.779 2°54.714 331.6 11.3 326 11.4
2011-06-06 06:47:15 51°14.792 2°54.7 330.6 11.5 327 11.8
2011-06-06 06:47:20 51°14.806 2°54.686 330.9 11.7 327 12.2
2011-06-06 06:47:25 51°14.82 2°54.672 331.3 11.8 327 11.6
2011-06-06 06:47:30 51°14.834 2°54.657 330.2 12.1 326 12.9
2011-06-06 06:47:35 51°14.848 2°54.642 330.3 12.2 328 12.1
2011-06-06 06:47:40 51°14.863 2°54.627 331.1 12.6 327 12.1
2011-06-06 06:47:45 51°14.877 2°54.612 330.6 12.7 327 13
2011-06-06 06:47:50 51°14.892 2°54.597 329.4 12.8 325 11.5
2011-06-06 06:47:55 51°14.907 2°54.581 327.4 12.9 324 11.7
2011-06-06 06:48:00 51°14.921 2°54.564 326.9 13 324 11.8
2011-06-06 06:48:05 51°14.936 2°54.547 327 13.1 325 11.5
2011-06-06 06:48:10 51°14.951 2°54.531 326.9 13 325 11.3
2011-06-06 06:48:15 51°14.966 2°54.514 326.7 13.1 325 11.4
2011-06-06 06:48:20 51°14.981 2°54.498 327 13 326 11.9
2011-06-06 06:48:25 51°14.995 2°54.481 327.5 13.2 325 12.1
2011-06-06 06:48:30 51°15.011 2°54.464 327.6 13.3 326 12.2
2011-06-06 06:48:35 51°15.026 2°54.448 328 13.2 326 11.9
2011-06-06 06:48:40 51°15.041 2°54.432 328.1 13 327 11.4
2011-06-06 06:48:45 51°15.056 2°54.416 328.4 13 326 11.6
2011-06-06 06:48:50 51°15.071 2°54.399 328.3 13.1 327 12.1
2011-06-06 06:48:55 51°15.086 2°54.384 328.7 13.1 327 12.1
2011-06-06 06:49:00 51°15.102 2°54.368 328.9 13.1 327 12
2011-06-06 06:49:05 51°15.117 2°54.351 329.1 13.2 326 11.7
2011-06-06 06:49:10 51°15.133 2°54.337 329.2 13.1 327 11.8
2011-06-06 06:49:15 51°15.148 2°54.32 328.8 13.2 326 12
2011-06-06 06:49:20 51°15.163 2°54.303 327.6 13.3 325 11.5
2011-06-06 06:49:25 51°15.178 2°54.285 326.7 13.3 323 12.2
2011-06-06 06:49:30 51°15.192 2°54.267 325.1 13.3 321 12.1
2011-06-06 06:49:35 51°15.206 2°54.248 323.8 13.3 321 12
2011-06-06 06:49:40 51°15.22 2°54.23 322.8 13.3 320 12.5
2011-06-06 06:49:45 51°15.234 2°54.21 321.8 13.1 319 11.3
2011-06-06 06:49:51 51°15.251 2°54.188 321.3 13.1 320 11.6
2011-06-06 06:49:55 51°15.262 2°54.173 321.5 13 320 12.1
2011-06-06 06:50:00 51°15.276 2°54.155 322 13.1 320 12.2
2011-06-06 06:50:05 51°15.29 2°54.136 322.3 13.2 321 11.8
2011-06-06 06:50:10 51°15.304 2°54.118 322.6 13.2 320 11.7
2011-06-06 06:50:15 51°15.318 2°54.099 322.5 13.2 321 11.6
2011-06-06 06:50:20 51°15.332 2°54.08 322.4 13 320 11.8
2011-06-06 06:50:25 51°15.346 2°54.062 322.6 13.1 320 11.7
2011-06-06 06:50:30 51°15.361 2°54.045 323.1 13.1 322 12
2011-06-06 06:50:35 51°15.375 2°54.027 324.3 13 323 12.3
2011-06-06 06:50:40 51°15.389 2°54.01 325.2 13.1 322 12.4
2011-06-06 06:50:45 51°15.404 2°53.992 325 13.2 321 12.1
2011-06-06 06:50:50 51°15.417 2°53.973 323.9 13.1 320 12.2
2011-06-06 06:50:55 51°15.431 2°53.954 323.1 13.1 319 12
2011-06-06 06:51:00 51°15.444 2°53.935 322.2 13 318 12
2011-06-06 06:51:05 51°15.458 2°53.916 321.4 13 318 11.8
2011-06-06 06:51:10 51°15.471 2°53.896 320.9 13 317 11.8
2011-06-06 06:51:15 51°15.484 2°53.877 320.2 13 317 12.1
2011-06-06 06:51:20 51°15.497 2°53.856 319.3 13.1 316 11.9
2011-06-06 06:51:25 51°15.51 2°53.836 318.7 13 315 11.7
2011-06-06 06:51:30 51°15.523 2°53.816 317.8 13 314 12.4
2011-06-06 06:51:35 51°15.536 2°53.796 317.6 13 314 12.2
2011-06-06 06:51:40 51°15.549 2°53.776 317.2 13 315 12.1
2011-06-06 06:51:45 51°15.562 2°53.755 317.5 13.1 315 11.9
2011-06-06 06:51:50 51°15.575 2°53.735 318.3 13.1 316 12.3
2011-06-06 06:51:55 51°15.588 2°53.715 318.8 13.1 316 12
2011-06-06 06:52:00 51°15.601 2°53.695 319 13.1 317 11.7
2011-06-06 06:52:05 51°15.614 2°53.676 318.9 13.1 317 11.7
2011-06-06 06:52:10 51°15.628 2°53.657 319.9 13 319 11.7
2011-06-06 06:52:15 51°15.642 2°53.638 321 13.1 319 11.8
2011-06-06 06:52:19 51°15.653 2°53.623 322.1 13 320 12
2011-06-06 06:52:25 51°15.669 2°53.601 322.9 13 320 12.2
2011-06-06 06:52:30 51°15.683 2°53.583 323.5 13 321 12.1
2011-06-06 06:52:35 51°15.698 2°53.565 324.1 12.9 322 11.8
2011-06-06 06:52:40 51°15.711 2°53.548 325 12.8 323 12.6
2011-06-06 06:52:45 51°15.726 2°53.531 326 12.8 324 12.6
2011-06-06 06:52:50 51°15.74 2°53.514 326.6 12.9 324 11.9
2011-06-06 06:52:55 51°15.755 2°53.498 327.3 12.9 325 11.9
2011-06-06 06:53:00 51°15.77 2°53.483 329 12.9 328 11.7
2011-06-06 06:53:05 51°15.785 2°53.467 330.5 12.8 328 12.3
2011-06-06 06:53:10 51°15.801 2°53.453 331.9 12.8 330 12.4
2011-06-06 06:53:15 51°15.816 2°53.438 332.9 12.8 330 11.5
2011-06-06 06:53:20 51°15.831 2°53.425 333.8 12.8 331 12.5
2011-06-06 06:53:26 51°15.85 2°53.409 334.6 12.8 332 11.7
2011-06-06 06:53:31 51°15.866 2°53.396 335.4 12.7 333 12.1
2011-06-06 06:53:35 51°15.879 2°53.386 336.2 12.8 333 11.7
2011-06-06 06:53:39 51°15.891 2°53.376 336.8 12.8 333 12
2011-06-06 06:53:46 51°15.914 2°53.358 337.3 12.8 334 -999
2011-06-06 06:53:51 51°15.93 2°53.346 337.3 12.8 333 11.6
2011-06-06 06:53:55 51°15.942 2°53.336 337.2 12.7 334 11.6
2011-06-06 06:54:00 51°15.958 2°53.324 337.3 12.8 334 12.1
2011-06-06 06:54:05 51°15.975 2°53.311 337.5 12.8 334 12
2011-06-06 06:54:10 51°15.991 2°53.299 337.1 12.9 334 12.2
2011-06-06 06:54:15 51°16.007 2°53.286 336.7 13 333 12
2011-06-06 06:54:20 51°16.023 2°53.273 336.1 12.8 334 11.5
2011-06-06 06:54:25 51°16.038 2°53.26 336.1 12.8 333 12.1
2011-06-06 06:54:30 51°16.055 2°53.248 336.2 12.9 334 12.2
2011-06-06 06:54:35 51°16.071 2°53.236 336.2 12.9 334 12.2
2011-06-06 06:54:40 51°16.087 2°53.223 336.6 13 334 12
2011-06-06 06:54:45 51°16.103 2°53.21 336.7 13 334 12.5
2011-06-06 06:54:50 51°16.119 2°53.198 336.5 12.9 333 12.6
2011-06-06 06:54:55 51°16.135 2°53.184 335.5 12.9 332 11.9
2011-06-06 06:55:00 51°16.15 2°53.17 334.3 12.9 331 12.3
2011-06-06 06:55:05 51°16.166 2°53.156 333.8 12.9 331 12.2
2011-06-06 06:55:10 51°16.181 2°53.142 334 12.9 331 12.1
2011-06-06 06:55:15 51°16.197 2°53.128 334 13 331 12.5
2011-06-06 06:55:20 51°16.213 2°53.113 333.9 13.1 330 11.9
2011-06-06 06:55:26 51°16.232 2°53.096 333.2 13 330 12.1
2011-06-06 06:55:30 51°16.244 2°53.084 332.9 13 330 12.2
2011-06-06 06:55:35 51°16.259 2°53.07 332.7 13 329 12.8
2011-06-06 06:55:40 51°16.275 2°53.055 332.6 13 330 11.8
2011-06-06 06:55:45 51°16.291 2°53.041 333 13 330 11.9
2011-06-06 06:55:50 51°16.306 2°53.027 333.1 13 330 12.2
2011-06-06 06:55:55 51°16.322 2°53.012 333.3 13.1 330 12
2011-06-06 06:56:00 51°16.338 2°52.998 333.3 13 330 12.2
2011-06-06 06:56:05 51°16.354 2°52.984 333.8 13.1 331 12.2
2011-06-06 06:56:10 51°16.37 2°52.97 334.1 13 332 11.9
2011-06-06 06:56:15 51°16.386 2°52.957 334.9 13.1 333 11.9
2011-06-06 06:56:20 51°16.402 2°52.944 335.7 13.1 333 12.1
2011-06-06 06:56:25 51°16.418 2°52.931 336.1 13.1 334 12.1
2011-06-06 06:56:30 51°16.435 2°52.919 336.9 13.2 335 12.1
2011-06-06 06:56:35 51°16.451 2°52.906 336.9 13.2 334 11.9
2011-06-06 06:56:40 51°16.467 2°52.893 336.4 13.1 334 11.7
2011-06-06 06:56:45 51°16.483 2°52.88 336 13.1 333 12.1
2011-06-06 06:56:51 51°16.503 2°52.864 335.5 13.1 333 12.4
2011-06-06 06:56:55 51°16.516 2°52.853 335 13.1 332 12
2011-06-06 06:57:00 51°16.532 2°52.84 334.6 13.1 332 11.7
2011-06-06 06:57:05 51°16.548 2°52.826 334 13 331 11.6
2011-06-06 06:57:10 51°16.563 2°52.812 333.5 12.9 331 11.4
2011-06-06 06:57:15 51°16.579 2°52.798 332.8 12.9 330 11.7
2011-06-06 06:57:19 51°16.592 2°52.787 332.5 13 331 11.8
2011-06-06 06:57:25 51°16.61 2°52.769 332.2 13 330 11.7
2011-06-06 06:57:30 51°16.626 2°52.755 331.9 13.1 330 11.6
2011-06-06 06:57:35 51°16.642 2°52.74 332.1 13.1 330 11.9
2011-06-06 06:57:40 51°16.658 2°52.726 332.2 13.1 330 11.2
2011-06-06 06:57:45 51°16.673 2°52.712 331.8 13.1 330 11.1
2011-06-06 06:57:50 51°16.689 2°52.697 331.7 13 330 11.1
2011-06-06 06:57:55 51°16.705 2°52.683 331.8 13 330 10.3
2011-06-06 06:58:00 51°16.72 2°52.669 332.3 12.9 332 10.8
2011-06-06 06:58:06 51°16.74 2°52.655 333.7 12.8 336 10.3
2011-06-06 06:58:10 51°16.753 2°52.647 338.5 12.7 340 10
2011-06-06 06:58:15 51°16.769 2°52.637 340.7 12.7 339 10.3
2011-06-06 06:58:20 51°16.786 2°52.629 342.7 12.7 343 10.7
2011-06-06 06:58:25 51°16.803 2°52.621 345.5 12.5 344 9.5
2011-06-06 06:58:30 51°16.82 2°52.615 346.7 12.5 347 9.8
2011-06-06 06:58:35 51°16.837 2°52.609 349.2 12.5 347 9.7
2011-06-06 06:58:40 51°16.854 2°52.604 350.8 12.5 350 10
2011-06-06 06:58:45 51°16.871 2°52.599 352.1 12.6 349 9.8
2011-06-06 06:58:50 51°16.888 2°52.595 352.9 12.5 351 10.2
2011-06-06 06:58:55 51°16.905 2°52.59 353.8 12.6 351 10.1
2011-06-06 06:59:00 51°16.923 2°52.586 354.4 12.6 352 9.8
2011-06-06 06:59:05 51°16.94 2°52.582 354.6 12.6 352 10.4
2011-06-06 06:59:11 51°16.961 2°52.578 355 12.6 352 10.3
2011-06-06 06:59:15 51°16.975 2°52.575 355.1 12.6 352 10.3
2011-06-06 06:59:20 51°16.992 2°52.571 355.1 12.6 352 9.8
2011-06-06 06:59:25 51°17.009 2°52.567 355 12.5 351 9.7
2011-06-06 06:59:30 51°17.026 2°52.562 354.1 12.5 351 9.9
2011-06-06 06:59:35 51°17.043 2°52.557 353.8 12.6 350 10.1
2011-06-06 06:59:40 51°17.061 2°52.553 353 12.6 350 9.7
2011-06-06 06:59:45 51°17.078 2°52.548 352.7 12.6 349 9.6
2011-06-06 06:59:50 51°17.095 2°52.542 352.1 12.6 349 9.8
2011-06-06 06:59:55 51°17.112 2°52.537 351.7 12.6 349 10.1
2011-06-06 06:59:59 51°17.126 2°52.533 351.1 12.6 348 9.7
2011-06-06 07:00:05 51°17.147 2°52.525 350.4 12.6 347 9.8
2011-06-06 07:00:10 51°17.163 2°52.519 349.6 12.5 346 9.9
2011-06-06 07:00:15 51°17.18 2°52.512 348.9 12.5 346 10.4
2011-06-06 07:00:20 51°17.197 2°52.505 348.5 12.6 345 10.9
2011-06-06 07:00:25 51°17.214 2°52.498 347.8 12.4 346 9.9
2011-06-06 07:00:30 51°17.231 2°52.492 347.8 12.5 346 10.6
2011-06-06 07:00:35 51°17.248 2°52.485 348.4 12.5 346 10.5
2011-06-06 07:00:40 51°17.265 2°52.479 348.8 12.6 346 10.3
2011-06-06 07:00:45 51°17.282 2°52.472 348.6 12.5 347 10.2
2011-06-06 07:00:50 51°17.299 2°52.466 348.8 12.7 347 10.5
2011-06-06 07:00:55 51°17.316 2°52.46 349.1 12.7 348 10.6
2011-06-06 07:01:00 51°17.334 2°52.454 349.7 12.8 348 10.5
2011-06-06 07:01:05 51°17.351 2°52.449 350.6 12.7 350 10.5
2011-06-06 07:01:10 51°17.368 2°52.445 351.4 12.7 351 10.6
2011-06-06 07:01:15 51°17.386 2°52.44 352.2 12.7 350 10.9
2011-06-06 07:01:20 51°17.403 2°52.436 352.8 12.7 352 10.8
2011-06-06 07:01:25 51°17.421 2°52.431 353.5 12.5 351 10.3
2011-06-06 07:01:30 51°17.438 2°52.427 353.3 12.6 351 10.6
2011-06-06 07:01:35 51°17.455 2°52.422 352.8 12.6 350 10.9
2011-06-06 07:01:40 51°17.472 2°52.418 353 12.5 350 10.6
2011-06-06 07:01:45 51°17.489 2°52.413 352.5 12.3 349 10.1
2011-06-06 07:01:50 51°17.506 2°52.407 352.1 12.4 348 10.6
2011-06-06 07:01:55 51°17.523 2°52.402 351.8 12.5 350 10.4
2011-06-06 07:02:00 51°17.54 2°52.397 352.2 12.4 349 10.7
2011-06-06 07:02:05 51°17.557 2°52.392 352.3 12.4 350 11.3
2011-06-06 07:02:10 51°17.574 2°52.387 352.9 12.4 350 11
2011-06-06 07:02:15 51°17.591 2°52.383 353.5 12.5 351 10.6
2011-06-06 07:02:20 51°17.608 2°52.377 353.1 12.4 349 10.5
2011-06-06 07:02:25 51°17.625 2°52.373 353.1 12.4 351 10.5
2011-06-06 07:02:30 51°17.642 2°52.368 353.1 12.4 349 10.4
2011-06-06 07:02:35 51°17.659 2°52.363 352.7 12.4 350 10.6
2011-06-06 07:02:39 51°17.672 2°52.359 353 12.4 350 10.8
2011-06-06 07:02:45 51°17.693 2°52.353 353 12.5 350 10.5
2011-06-06 07:02:50 51°17.71 2°52.348 352.9 12.5 349 10.5
2011-06-06 07:02:55 51°17.727 2°52.343 352.8 12.5 350 10.5
2011-06-06 07:03:00 51°17.744 2°52.338 352.8 12.3 349 9.8
2011-06-06 07:03:05 51°17.761 2°52.333 352.4 12.3 349 10.6
2011-06-06 07:03:10 51°17.778 2°52.328 352.8 12.3 349 10.5
2011-06-06 07:03:15 51°17.794 2°52.323 352.6 12.4 349 10.6
2011-06-06 07:03:20 51°17.811 2°52.317 352.3 12.5 349 10.4
2011-06-06 07:03:25 51°17.828 2°52.311 351.8 12.4 347 10.5
2011-06-06 07:03:31 51°17.848 2°52.303 350.8 12.5 346 10.9
2011-06-06 07:03:35 51°17.862 2°52.298 349.7 12.5 345 10.7
2011-06-06 07:03:40 51°17.879 2°52.29 348.5 12.5 344 10.5
2011-06-06 07:03:45 51°17.895 2°52.283 348.2 12.5 345 10.7
2011-06-06 07:03:50 51°17.912 2°52.275 348 12.5 344 10.6
2011-06-06 07:03:55 51°17.929 2°52.268 347.5 12.5 344 11.2
2011-06-06 07:04:00 51°17.946 2°52.26 347.5 12.6 344 10.9
2011-06-06 07:04:05 51°17.963 2°52.252 347.5 12.6 344 11.1
2011-06-06 07:04:10 51°17.979 2°52.245 347.5 12.6 344 11.3
2011-06-06 07:04:15 51°17.996 2°52.238 347.9 12.6 345 11.7
2011-06-06 07:04:20 51°18.013 2°52.23 348.2 12.6 346 11.1
2011-06-06 07:04:25 51°18.03 2°52.223 349.1 12.6 345 11.2
2011-06-06 07:04:30 51°18.047 2°52.217 349.5 12.6 346 11.4
2011-06-06 07:04:35 51°18.064 2°52.21 349.6 12.6 346 11.1
2011-06-06 07:04:40 51°18.081 2°52.204 349.7 12.6 347 11.3
2011-06-06 07:04:46 51°18.101 2°52.196 350 12.6 346 11.7
2011-06-06 07:04:50 51°18.115 2°52.19 350 12.6 346 12.1
2011-06-06 07:04:55 51°18.132 2°52.183 349.7 12.6 346 11.4
2011-06-06 07:05:00 51°18.149 2°52.176 349.6 12.6 345 11.7
2011-06-06 07:05:05 51°18.166 2°52.169 349.1 12.7 346 11.6
2011-06-06 07:05:10 51°18.183 2°52.162 349 12.6 344 11.3
2011-06-06 07:05:15 51°18.199 2°52.155 347.9 12.6 345 11
2011-06-06 07:05:19 51°18.213 2°52.149 348.3 12.4 344 11.4
2011-06-06 07:05:25 51°18.232 2°52.139 347.9 12.4 344 12.2
2011-06-06 07:05:30 51°18.249 2°52.132 348.4 12.5 345 12
2011-06-06 07:05:35 51°18.266 2°52.125 348.7 12.4 345 11.9
2011-06-06 07:05:40 51°18.283 2°52.119 349.8 12.5 346 11.8
2011-06-06 07:05:45 51°18.3 2°52.113 350.2 12.5 347 11.6
2011-06-06 07:05:50 51°18.317 2°52.107 351.1 12.6 348 11.7
2011-06-06 07:05:55 51°18.333 2°52.101 351.9 12.5 348 12
2011-06-06 07:06:00 51°18.351 2°52.096 352.7 12.5 349 11.6
2011-06-06 07:06:05 51°18.367 2°52.091 352.6 12.5 349 12
2011-06-06 07:06:10 51°18.384 2°52.086 352.8 12.5 349 12
2011-06-06 07:06:15 51°18.402 2°52.081 353.2 12.5 349 11.6
2011-06-06 07:06:20 51°18.419 2°52.076 353.1 12.6 349 12.1
2011-06-06 07:06:25 51°18.436 2°52.071 352.8 12.6 349 12.1
2011-06-06 07:06:30 51°18.453 2°52.065 352.8 12.6 348 12.2
2011-06-06 07:06:35 51°18.47 2°52.059 352.2 12.5 348 12
2011-06-06 07:06:40 51°18.487 2°52.053 351.3 12.5 347 11.6
2011-06-06 07:06:45 51°18.504 2°52.046 350.9 12.5 346 11.9
2011-06-06 07:06:50 51°18.52 2°52.04 349.9 12.5 346 12
2011-06-06 07:06:55 51°18.537 2°52.032 349.1 12.6 345 12
2011-06-06 07:07:00 51°18.554 2°52.024 348.2 12.6 344 12.4
2011-06-06 07:07:05 51°18.571 2°52.017 347.7 12.7 344 12.5
2011-06-06 07:07:10 51°18.588 2°52.008 347.2 12.6 343 12.4
2011-06-06 07:07:15 51°18.604 2°52 346.8 12.5 343 12
2011-06-06 07:07:20 51°18.621 2°51.993 347.1 12.5 344 12.4
2011-06-06 07:07:26 51°18.641 2°51.984 347.7 12.5 344 12.9
2011-06-06 07:07:30 51°18.654 2°51.978 348.3 12.6 345 12.7
2011-06-06 07:07:35 51°18.671 2°51.971 348.5 12.6 345 12.9
2011-06-06 07:07:40 51°18.688 2°51.964 348.7 12.5 345 13
2011-06-06 07:07:45 51°18.705 2°51.957 349.2 12.5 346 12.8
2011-06-06 07:07:50 51°18.722 2°51.95 349.6 12.4 346 13.1
2011-06-06 07:07:55 51°18.738 2°51.944 349.9 12.3 346 13.9
2011-06-06 07:07:59 51°18.752 2°51.939 350.1 12.4 347 13.9
2011-06-06 07:08:05 51°18.772 2°51.931 350.6 12.4 347 13.9
2011-06-06 07:08:10 51°18.789 2°51.925 351 12.4 348 13.7
2011-06-06 07:08:15 51°18.806 2°51.919 351.7 12.5 348 13.7
2011-06-06 07:08:20 51°18.823 2°51.914 352.1 12.5 348 13.3
2011-06-06 07:08:25 51°18.84 2°51.909 352.1 12.4 349 13.7
2011-06-06 07:08:30 51°18.857 2°51.903 352.6 12.5 349 14
2011-06-06 07:08:35 51°18.874 2°51.898 353 12.6 349 13.8
2011-06-06 07:08:40 51°18.891 2°51.893 353.2 12.6 349 13.9
2011-06-06 07:08:45 51°18.908 2°51.888 353 12.6 349 14.6
2011-06-06 07:08:50 51°18.925 2°51.882 352.7 12.6 349 14.6
2011-06-06 07:08:55 51°18.942 2°51.877 352.5 12.5 349 14.5
2011-06-06 07:09:00 51°18.959 2°51.871 352.3 12.6 348 14.3
2011-06-06 07:09:05 51°18.976 2°51.865 351.8 12.6 347 14.4
2011-06-06 07:09:10 51°18.993 2°51.858 351.5 12.6 346 15
2011-06-06 07:09:15 51°19.01 2°51.852 350.7 12.5 346 15.3
2011-06-06 07:09:20 51°19.027 2°51.845 350.4 12.6 346 14.8
2011-06-06 07:09:25 51°19.044 2°51.838 349.6 12.5 346 14.6
2011-06-06 07:09:30 51°19.061 2°51.831 349.6 12.5 345 14.6
2011-06-06 07:09:35 51°19.078 2°51.824 349.2 12.6 344 14.5
2011-06-06 07:09:40 51°19.095 2°51.816 348.9 12.6 345 15.2
2011-06-06 07:09:45 51°19.111 2°51.809 348.7 12.6 344 15
2011-06-06 07:09:50 51°19.128 2°51.801 348.3 12.5 344 14.7
2011-06-06 07:09:55 51°19.145 2°51.794 348.2 12.4 344 15.4
2011-06-06 07:10:00 51°19.161 2°51.786 348.1 12.4 344 15.7
2011-06-06 07:10:05 51°19.178 2°51.779 348.3 12.5 344 15.6
2011-06-06 07:10:11 51°19.198 2°51.77 348.4 12.5 345 15.1
2011-06-06 07:10:15 51°19.211 2°51.764 348.9 12.4 345 15.7
2011-06-06 07:10:20 51°19.228 2°51.757 349.2 12.4 345 16.1
2011-06-06 07:10:25 51°19.245 2°51.75 349.2 12.4 345 15.5
2011-06-06 07:10:30 51°19.261 2°51.743 349.1 12.1 344 15.7
2011-06-06 07:10:35 51°19.277 2°51.735 348.6 12.2 344 15.4
2011-06-06 07:10:39 51°19.29 2°51.73 348.6 12.2 345 16.1
2011-06-06 07:10:45 51°19.309 2°51.721 349.1 12.4 346 16.3
2011-06-06 07:10:50 51°19.326 2°51.715 349.5 12.4 346 15.9
2011-06-06 07:10:55 51°19.343 2°51.709 350.7 12.3 347 15.6
2011-06-06 07:11:00 51°19.359 2°51.703 351.3 12.5 347 15.8
2011-06-06 07:11:05 51°19.377 2°51.697 351.7 12.5 348 15.7
2011-06-06 07:11:10 51°19.394 2°51.691 351.9 12.6 348 15.6
2011-06-06 07:11:15 51°19.411 2°51.685 352.2 12.6 348 15.7
2011-06-06 07:11:20 51°19.428 2°51.68 352.3 12.7 348 16.1
2011-06-06 07:11:26 51°19.449 2°51.672 352.6 12.6 348 15.9
2011-06-06 07:11:30 51°19.462 2°51.668 352.3 12.6 348 16
2011-06-06 07:11:35 51°19.479 2°51.662 352.4 12.5 348 16.1
2011-06-06 07:11:40 51°19.497 2°51.656 352.7 12.6 349 16
2011-06-06 07:11:45 51°19.514 2°51.65 352.7 12.7 348 15.6
2011-06-06 07:11:50 51°19.531 2°51.644 352.5 12.7 348 15.5
2011-06-06 07:11:55 51°19.548 2°51.638 352.1 12.7 347 15.2
2011-06-06 07:12:00 51°19.565 2°51.632 351.9 12.7 348 15.6
2011-06-06 07:12:05 51°19.582 2°51.626 352.1 12.7 347 15.3
2011-06-06 07:12:10 51°19.599 2°51.62 352.2 12.6 348 15
2011-06-06 07:12:15 51°19.616 2°51.614 351.9 12.7 347 15.3
2011-06-06 07:12:20 51°19.633 2°51.608 351.5 12.8 347 15.2
2011-06-06 07:12:25 51°19.65 2°51.602 351.4 12.7 347 14.9
2011-06-06 07:12:30 51°19.667 2°51.595 351.4 12.5 347 15
2011-06-06 07:12:35 51°19.684 2°51.589 351.4 12.6 347 15
2011-06-06 07:12:40 51°19.701 2°51.582 351.4 12.7 347 15
2011-06-06 07:12:45 51°19.719 2°51.576 351.1 12.7 347 15
2011-06-06 07:12:50 51°19.736 2°51.57 351.1 12.7 346 15.1
2011-06-06 07:12:55 51°19.753 2°51.563 350.6 12.6 346 15.5
2011-06-06 07:13:00 51°19.77 2°51.555 350.1 12.7 345 16
2011-06-06 07:13:05 51°19.786 2°51.548 349.1 12.5 343 15.2
2011-06-06 07:13:10 51°19.803 2°51.54 347.9 12.7 343 14.9
2011-06-06 07:13:15 51°19.82 2°51.532 347.7 12.7 344 14.7
2011-06-06 07:13:19 51°19.834 2°51.525 347.5 12.6 344 15.2
2011-06-06 07:13:25 51°19.854 2°51.516 347.5 12.7 344 15.4
2011-06-06 07:13:30 51°19.871 2°51.509 347.7 12.7 344 15.2
2011-06-06 07:13:35 51°19.888 2°51.501 348.5 12.6 345 15.1
2011-06-06 07:13:40 51°19.905 2°51.495 348.7 12.7 345 15.1
2011-06-06 07:13:45 51°19.922 2°51.487 348.8 12.8 345 14.6
2011-06-06 07:13:50 51°19.939 2°51.48 348.8 12.7 345 13.6
2011-06-06 07:13:55 51°19.956 2°51.473 348.6 12.8 345 13.8
2011-06-06 07:14:00 51°19.973 2°51.466 348.6 12.7 345 13.4
2011-06-06 07:14:05 51°19.99 2°51.459 348.9 12.7 345 13.2
2011-06-06 07:14:10 51°20.008 2°51.452 348.9 12.6 346 12.8
2011-06-06 07:14:15 51°20.025 2°51.445 349.2 12.7 346 12.5
2011-06-06 07:14:20 51°20.041 2°51.438 349.3 12.4 345 13.3
2011-06-06 07:14:25 51°20.058 2°51.431 349.2 12.3 346 13.9
2011-06-06 07:14:30 51°20.074 2°51.424 349.4 12.5 346 14.1
2011-06-06 07:14:35 51°20.091 2°51.418 349.8 12.5 346 13.8
2011-06-06 07:14:40 51°20.108 2°51.412 350.2 12.6 347 13.1
2011-06-06 07:14:45 51°20.125 2°51.405 350.4 12.7 346 13.2
2011-06-06 07:14:50 51°20.143 2°51.399 350.3 12.7 347 13.4
2011-06-06 07:14:55 51°20.16 2°51.392 350.6 12.7 347 13.4
2011-06-06 07:15:00 51°20.177 2°51.386 350.8 12.8 347 13.1
2011-06-06 07:15:05 51°20.194 2°51.379 350.6 12.8 347 13.1
2011-06-06 07:15:10 51°20.212 2°51.372 350.7 12.8 347 12.7
2011-06-06 07:15:15 51°20.229 2°51.366 350.8 12.8 347 12.7
2011-06-06 07:15:20 51°20.246 2°51.36 351.3 12.6 347 13.5
2011-06-06 07:15:25 51°20.263 2°51.354 351.6 12.8 347 13.7
2011-06-06 07:15:30 51°20.28 2°51.348 351.4 12.8 347 14
2011-06-06 07:15:35 51°20.298 2°51.341 351.4 12.7 348 14
2011-06-06 07:15:40 51°20.315 2°51.335 350.9 12.7 348 13.7
2011-06-06 07:15:45 51°20.332 2°51.329 350.9 12.5 347 13.5
2011-06-06 07:15:50 51°20.348 2°51.323 350.9 12.6 347 14.1
2011-06-06 07:15:55 51°20.365 2°51.316 351.2 12.7 347 14.5
2011-06-06 07:15:59 51°20.379 2°51.311 351 12.6 346 14.4
2011-06-06 07:16:05 51°20.399 2°51.303 350.7 12.5 347 15
2011-06-06 07:16:10 51°20.416 2°51.297 350.8 12.6 347 14.8
2011-06-06 07:16:15 51°20.433 2°51.291 351.1 12.6 347 15.5
2011-06-06 07:16:20 51°20.45 2°51.285 351.4 12.7 347 15.4
2011-06-06 07:16:25 51°20.467 2°51.278 351.5 12.5 347 15
2011-06-06 07:16:30 51°20.484 2°51.272 351.5 12.6 347 15.8
2011-06-06 07:16:35 51°20.501 2°51.266 351.5 12.6 347 15.7
2011-06-06 07:16:40 51°20.518 2°51.26 351.7 12.4 347 16.4
2011-06-06 07:16:45 51°20.535 2°51.254 351.5 12.5 347 16.4
2011-06-06 07:16:51 51°20.556 2°51.246 351.5 12.6 347 16.1
2011-06-06 07:16:55 51°20.569 2°51.241 351.3 12.7 347 15.8
2011-06-06 07:17:00 51°20.586 2°51.234 350.9 12.6 346 15.9
2011-06-06 07:17:05 51°20.603 2°51.227 350.2 12.6 345 16.1
2011-06-06 07:17:10 51°20.62 2°51.22 349.8 12.6 345 16.2
2011-06-06 07:17:15 51°20.637 2°51.212 349.3 12.7 344 16.5
2011-06-06 07:17:19 51°20.65 2°51.206 348.5 12.7 343 17.4
2011-06-06 07:17:25 51°20.67 2°51.196 347.9 12.7 344 17
2011-06-06 07:17:30 51°20.687 2°51.188 347.9 12.8 343 17.2
2011-06-06 07:17:35 51°20.704 2°51.18 347.8 12.7 344 17.2
2011-06-06 07:17:40 51°20.721 2°51.172 348 12.7 343 17.3
2011-06-06 07:17:45 51°20.738 2°51.164 348 12.8 344 17.6
2011-06-06 07:17:50 51°20.755 2°51.156 348.1 12.8 344 17.8
2011-06-06 07:17:55 51°20.772 2°51.148 348.4 12.8 344 17.6
2011-06-06 07:18:00 51°20.789 2°51.141 348.5 12.7 344 17.9
2011-06-06 07:18:05 51°20.806 2°51.133 348.5 12.6 344 18.4
2011-06-06 07:18:10 51°20.823 2°51.125 348.5 12.7 344 18.8
2011-06-06 07:18:15 51°20.84 2°51.118 349.1 12.7 344 18.8
2011-06-06 07:18:19 51°20.853 2°51.112 349.2 12.7 346 18.8
2011-06-06 07:18:25 51°20.874 2°51.104 349.9 12.7 346 19.3
2011-06-06 07:18:30 51°20.891 2°51.098 350.8 12.7 347 19.6
2011-06-06 07:18:35 51°20.908 2°51.092 351.4 12.7 347 19.6
2011-06-06 07:18:40 51°20.925 2°51.086 351.8 12.7 348 19.9
2011-06-06 07:18:45 51°20.943 2°51.08 351.9 12.7 348 20.2
2011-06-06 07:18:50 51°20.96 2°51.074 352.1 12.8 349 20.7
2011-06-06 07:18:55 51°20.977 2°51.068 352.6 12.6 349 20.7
2011-06-06 07:19:00 51°20.994 2°51.063 352.9 12.6 349 21
2011-06-06 07:19:05 51°21.011 2°51.057 352.8 12.6 347 21
2011-06-06 07:19:10 51°21.028 2°51.051 352.1 12.6 348 21.1
2011-06-06 07:19:15 51°21.045 2°51.045 352.1 12.6 347 21.3
2011-06-06 07:19:19 51°21.058 2°51.04 351.5 12.6 347 22.2
2011-06-06 07:19:25 51°21.079 2°51.032 350.9 12.6 346 22.4
2011-06-06 07:19:30 51°21.096 2°51.025 350.1 12.6 345 22.3
2011-06-06 07:19:35 51°21.113 2°51.018 349.3 12.6 345 22.1
2011-06-06 07:19:40 51°21.129 2°51.01 348.9 12.7 344 22.3
2011-06-06 07:19:45 51°21.146 2°51.002 348.3 12.7 343 22.5
2011-06-06 07:19:50 51°21.163 2°50.994 347.9 12.7 344 23
2011-06-06 07:19:55 51°21.18 2°50.986 347.7 12.7 343 22.6
2011-06-06 07:20:00 51°21.197 2°50.978 347.7 12.8 343 22.9
2011-06-06 07:20:05 51°21.214 2°50.97 347.7 12.7 344 22.8
2011-06-06 07:20:10 51°21.231 2°50.962 348.2 12.7 345 23.2
2011-06-06 07:20:15 51°21.248 2°50.955 348.6 12.7 344 23.1
2011-06-06 07:20:20 51°21.265 2°50.948 348.9 12.7 346 23
2011-06-06 07:20:25 51°21.282 2°50.94 349.5 12.6 345 23.1
2011-06-06 07:20:30 51°21.299 2°50.934 349.9 12.7 346 23.6
2011-06-06 07:20:35 51°21.316 2°50.928 350.5 12.7 347 23.4
2011-06-06 07:20:39 51°21.33 2°50.923 351.1 12.8 348 23.2
2011-06-06 07:20:45 51°21.351 2°50.916 351.6 12.9 348 23.6
2011-06-06 07:20:50 51°21.368 2°50.91 352 12.9 348 23.5
2011-06-06 07:20:55 51°21.386 2°50.904 352.4 12.8 349 23.7
2011-06-06 07:21:00 51°21.403 2°50.899 352.9 12.8 349 23.1
2011-06-06 07:21:05 51°21.421 2°50.894 353.3 12.8 349 23.7
2011-06-06 07:21:10 51°21.438 2°50.888 352.8 12.8 349 23.5
2011-06-06 07:21:15 51°21.456 2°50.882 352.4 12.9 348 23.1
2011-06-06 07:21:20 51°21.473 2°50.876 351.9 12.7 348 23.9
2011-06-06 07:21:25 51°21.49 2°50.871 351.8 12.8 348 23.8
2011-06-06 07:21:30 51°21.507 2°50.865 351.9 12.8 348 23.6
2011-06-06 07:21:35 51°21.525 2°50.859 352 12.8 348 23.4
2011-06-06 07:21:39 51°21.539 2°50.855 352.2 12.8 348 23.9
2011-06-06 07:21:45 51°21.56 2°50.848 352.1 12.9 347 24
2011-06-06 07:21:50 51°21.577 2°50.841 351.2 12.9 347 24.4
2011-06-06 07:21:55 51°21.594 2°50.835 350.5 12.9 346 24.1
2011-06-06 07:22:00 51°21.612 2°50.828 349.9 12.9 346 23.7
2011-06-06 07:22:05 51°21.63 2°50.82 349.3 13 345 23.7
2011-06-06 07:22:10 51°21.647 2°50.813 348.8 13.1 345 24.1
2011-06-06 07:22:15 51°21.665 2°50.805 348.2 13.1 344 23.6
2011-06-06 07:22:20 51°21.682 2°50.798 347.9 12.9 344 23.8
2011-06-06 07:22:25 51°21.699 2°50.79 347.7 13 345 23.9
2011-06-06 07:22:30 51°21.717 2°50.783 348.2 13 345 23.8
2011-06-06 07:22:35 51°21.734 2°50.775 348.5 13.1 346 23.6
2011-06-06 07:22:39 51°21.748 2°50.77 348.7 13 345 23.3
2011-06-06 07:22:45 51°21.77 2°50.761 348.9 13 346 23.4
2011-06-06 07:22:50 51°21.787 2°50.754 349.2 12.9 345 23.2
2011-06-06 07:22:55 51°21.804 2°50.748 349.4 12.8 346 23.8
2011-06-06 07:23:00 51°21.822 2°50.741 349.7 12.9 347 24.2
2011-06-06 07:23:05 51°21.839 2°50.735 350 12.8 348 23.4
2011-06-06 07:23:10 51°21.856 2°50.729 350.8 12.8 348 23.4
2011-06-06 07:23:15 51°21.874 2°50.724 351.4 12.8 349 23.5
2011-06-06 07:23:20 51°21.891 2°50.718 351.9 12.8 349 22.6
2011-06-06 07:23:25 51°21.908 2°50.712 352 12.7 349 23
2011-06-06 07:23:31 51°21.929 2°50.705 351.7 12.7 348 22.7
2011-06-06 07:23:35 51°21.943 2°50.7 351.2 12.8 347 22.8
2011-06-06 07:23:40 51°21.96 2°50.694 350.9 12.7 347 23.3
2011-06-06 07:23:45 51°21.977 2°50.687 350.3 12.8 346 23.4
2011-06-06 07:23:50 51°21.995 2°50.679 349.7 12.7 344 22.5
2011-06-06 07:23:55 51°22.011 2°50.672 348.5 12.7 343 22.9
2011-06-06 07:23:59 51°22.025 2°50.665 348 12.8 344 22.7
2011-06-06 07:24:05 51°22.046 2°50.656 347.7 12.7 344 22.1
2011-06-06 07:24:10 51°22.063 2°50.648 347.8 12.7 344 22.3
2011-06-06 07:24:15 51°22.08 2°50.64 347.9 12.8 344 22.8
2011-06-06 07:24:20 51°22.097 2°50.633 348 12.9 344 22.5
2011-06-06 07:24:25 51°22.114 2°50.625 348.3 12.7 344 23
2011-06-06 07:24:30 51°22.131 2°50.617 348.6 12.7 345 23.7
2011-06-06 07:24:35 51°22.148 2°50.61 349.1 12.6 345 23.9
2011-06-06 07:24:40 51°22.165 2°50.602 349.4 12.7 346 23.3
2011-06-06 07:24:45 51°22.182 2°50.595 349.9 12.7 346 23.2
2011-06-06 07:24:50 51°22.198 2°50.589 350.6 12.4 346 22.5
2011-06-06 07:24:55 51°22.215 2°50.583 350.7 12.5 347 22.5
2011-06-06 07:24:59 51°22.229 2°50.578 351.2 12.4 346 23
2011-06-06 07:25:05 51°22.249 2°50.571 351.9 12.4 347 23.6
2011-06-06 07:25:10 51°22.265 2°50.564 351.8 12.5 347 23.7
2011-06-06 07:25:15 51°22.283 2°50.558 351.8 12.5 347 23
2011-06-06 07:25:20 51°22.299 2°50.552 351.8 12.7 347 23.3
2011-06-06 07:25:25 51°22.317 2°50.545 351.7 12.5 347 22.2
2011-06-06 07:25:30 51°22.334 2°50.539 351.7 12.6 348 22.9
2011-06-06 07:25:35 51°22.351 2°50.533 351.9 12.7 347 22.7
2011-06-06 07:25:40 51°22.368 2°50.527 351.9 12.7 348 22.9
2011-06-06 07:25:45 51°22.385 2°50.521 352.4 12.9 348 23.3
2011-06-06 07:25:50 51°22.403 2°50.515 352.2 12.9 349 23.2
2011-06-06 07:25:55 51°22.42 2°50.51 352.2 12.8 348 23
2011-06-06 07:25:59 51°22.434 2°50.505 352.4 12.7 348 22.7
2011-06-06 07:26:05 51°22.455 2°50.499 352.3 12.7 349 23
2011-06-06 07:26:10 51°22.473 2°50.493 352.3 12.8 349 23
2011-06-06 07:26:15 51°22.49 2°50.488 352.3 12.9 349 22.3
2011-06-06 07:26:20 51°22.507 2°50.482 352.1 12.5 348 21.9
2011-06-06 07:26:25 51°22.524 2°50.476 351.6 12.6 347 22.5
2011-06-06 07:26:30 51°22.541 2°50.469 350.9 12.5 347 23
2011-06-06 07:26:35 51°22.558 2°50.463 350.6 12.4 346 23.3
2011-06-06 07:26:40 51°22.575 2°50.456 350 12.4 346 23.2
2011-06-06 07:26:45 51°22.592 2°50.449 349.1 12.7 344 22.7
2011-06-06 07:26:50 51°22.608 2°50.441 348.9 12.5 344 22.2
2011-06-06 07:26:55 51°22.625 2°50.433 348 12.6 343 21.3
2011-06-06 07:27:00 51°22.641 2°50.426 347.7 12.3 344 20.7
2011-06-06 07:27:05 51°22.658 2°50.417 347.3 12.4 344 21.8
2011-06-06 07:27:10 51°22.674 2°50.41 347.5 12.5 344 22.1
2011-06-06 07:27:15 51°22.691 2°50.402 348.1 12.6 345 21.4
2011-06-06 07:27:19 51°22.705 2°50.397 349 12.6 345 21
2011-06-06 07:27:25 51°22.725 2°50.389 349.4 12.6 346 21.1
2011-06-06 07:27:30 51°22.742 2°50.382 349.8 12.7 346 20.1
2011-06-06 07:27:35 51°22.759 2°50.375 349.8 12.6 346 19.6
2011-06-06 07:27:40 51°22.776 2°50.368 349.7 12.7 346 18.9
2011-06-06 07:27:45 51°22.793 2°50.361 349.7 12.8 345 18.3
2011-06-06 07:27:50 51°22.81 2°50.354 349.9 12.7 346 17.8
2011-06-06 07:27:55 51°22.827 2°50.347 349.7 12.7 345 15.1
2011-06-06 07:28:00 51°22.844 2°50.34 349.2 12.6 345 14.5
2011-06-06 07:28:05 51°22.861 2°50.333 349.1 12.6 345 16.6
2011-06-06 07:28:10 51°22.877 2°50.326 349.1 12.7 345 17.6
2011-06-06 07:28:15 51°22.894 2°50.318 349.2 12.7 345 17.1
2011-06-06 07:28:19 51°22.908 2°50.313 349.2 12.8 345 15
2011-06-06 07:28:25 51°22.928 2°50.304 349.2 12.7 346 14.6
2011-06-06 07:28:30 51°22.945 2°50.297 349.5 12.7 345 15.6
2011-06-06 07:28:35 51°22.962 2°50.29 349.9 12.8 346 15.3
2011-06-06 07:28:40 51°22.98 2°50.283 350.4 12.6 346 15
2011-06-06 07:28:45 51°22.997 2°50.277 350.7 12.7 347 14.3
2011-06-06 07:28:50 51°23.014 2°50.271 350.7 12.6 347 13.8
2011-06-06 07:28:55 51°23.031 2°50.264 350.5 12.7 346 15.4
2011-06-06 07:29:00 51°23.048 2°50.257 350.2 12.8 347 15.9
2011-06-06 07:29:05 51°23.065 2°50.25 349.8 12.8 346 16.5
2011-06-06 07:29:10 51°23.082 2°50.243 349.9 12.8 346 16.7
2011-06-06 07:29:15 51°23.1 2°50.237 350.3 12.9 347 15.9
2011-06-06 07:29:20 51°23.117 2°50.23 350.3 12.8 346 13.5
2011-06-06 07:29:25 51°23.134 2°50.223 350.2 12.4 347 15.8
2011-06-06 07:29:30 51°23.151 2°50.217 350.6 12.5 348 16.3
2011-06-06 07:29:35 51°23.168 2°50.211 351.3 12.6 347 14.8
2011-06-06 07:29:40 51°23.185 2°50.206 351.9 12.6 349 16.2
2011-06-06 07:29:45 51°23.202 2°50.2 352.4 12.7 348 16.5
2011-06-06 07:29:50 51°23.22 2°50.195 352.3 12.7 348 16.6
2011-06-06 07:29:55 51°23.237 2°50.19 352.7 12.8 349 16.4
2011-06-06 07:30:00 51°23.254 2°50.184 352.8 12.5 348 16.1
2011-06-06 07:30:05 51°23.271 2°50.179 352.4 12.5 348 15.4
2011-06-06 07:30:10 51°23.288 2°50.172 352 12.6 347 17
2011-06-06 07:30:15 51°23.305 2°50.166 351.6 12.6 347 18.1
2011-06-06 07:30:20 51°23.322 2°50.159 351 12.6 346 17.8
2011-06-06 07:30:25 51°23.339 2°50.153 350.5 12.7 346 18.1
2011-06-06 07:30:30 51°23.357 2°50.145 350.2 12.8 345 18.2
2011-06-06 07:30:35 51°23.374 2°50.138 349.2 12.7 344 16.6
2011-06-06 07:30:40 51°23.391 2°50.13 348.5 12.7 345 17.2
2011-06-06 07:30:45 51°23.407 2°50.122 348.1 12.8 344 18.1
2011-06-06 07:30:50 51°23.424 2°50.114 348.1 12.8 345 18.7
2011-06-06 07:30:55 51°23.441 2°50.106 348.3 12.7 344 19
2011-06-06 07:30:59 51°23.455 2°50.1 348.1 12.6 344 19.7
2011-06-06 07:31:05 51°23.475 2°50.091 348 12.6 344 20
2011-06-06 07:31:10 51°23.492 2°50.083 347.9 12.6 344 18.7
2011-06-06 07:31:15 51°23.509 2°50.075 348.5 12.6 345 19.5
2011-06-06 07:31:20 51°23.526 2°50.068 348.6 12.8 345 19.7
2011-06-06 07:31:25 51°23.543 2°50.061 349.2 12.8 346 20.1
2011-06-06 07:31:30 51°23.56 2°50.054 350.1 12.7 346 20.3
2011-06-06 07:31:35 51°23.577 2°50.048 350.5 12.6 347 20.8
2011-06-06 07:31:40 51°23.594 2°50.041 351.1 12.7 347 21.8
2011-06-06 07:31:46 51°23.615 2°50.034 351.7 12.8 347 21.3
2011-06-06 07:31:50 51°23.629 2°50.029 352.1 12.6 348 21.3
2011-06-06 07:31:55 51°23.646 2°50.023 352.4 12.6 348 21.4
2011-06-06 07:32:00 51°23.663 2°50.018 352.8 12.5 348 21.5
2011-06-06 07:32:05 51°23.679 2°50.013 353 12.5 349 22.6
2011-06-06 07:32:10 51°23.697 2°50.007 353.1 12.6 349 22.4
2011-06-06 07:32:15 51°23.714 2°50.002 353.2 12.7 349 22.2
2011-06-06 07:32:20 51°23.731 2°49.996 353.4 12.5 348 22.1
2011-06-06 07:32:25 51°23.748 2°49.99 352.3 12.7 348 21.8
2011-06-06 07:32:30 51°23.765 2°49.984 351.9 12.3 348 22.1
2011-06-06 07:32:35 51°23.781 2°49.977 351.4 12.4 347 22.9
2011-06-06 07:32:40 51°23.798 2°49.971 351.2 12.5 347 22.9
2011-06-06 07:32:45 51°23.815 2°49.964 351.2 12.6 346 22.9
2011-06-06 07:32:51 51°23.835 2°49.956 351 12.6 346 22.4
2011-06-06 07:32:55 51°23.849 2°49.951 350.8 12.7 346 22
2011-06-06 07:33:00 51°23.866 2°49.944 350.6 12.7 345 21.8
2011-06-06 07:33:05 51°23.883 2°49.937 350.1 12.6 345 21.4
2011-06-06 07:33:10 51°23.9 2°49.929 349.9 12.5 344 21.2
2011-06-06 07:33:15 51°23.917 2°49.922 349.2 12.3 344 21.6
2011-06-06 07:33:20 51°23.933 2°49.914 348.7 12.4 344 22.6
2011-06-06 07:33:25 51°23.95 2°49.906 348.6 12.5 344 22.4
2011-06-06 07:33:30 51°23.966 2°49.898 348.5 12.5 344 22.4
2011-06-06 07:33:35 51°23.983 2°49.89 348.7 12.5 343 21.5
2011-06-06 07:33:39 51°23.996 2°49.884 347.9 12.4 343 21.9
2011-06-06 07:33:45 51°24.016 2°49.874 348.2 12.6 343 22.1
2011-06-06 07:33:50 51°24.033 2°49.866 348.5 12.6 344 22.1
2011-06-06 07:33:55 51°24.049 2°49.859 348.5 12.6 344 22
2011-06-06 07:34:00 51°24.066 2°49.851 348.5 12.7 345 21.7
2011-06-06 07:34:05 51°24.083 2°49.844 349 12.5 344 22.1
2011-06-06 07:34:10 51°24.1 2°49.837 349.2 12.6 345 22.4
2011-06-06 07:34:15 51°24.117 2°49.829 349.3 12.7 345 22.1
2011-06-06 07:34:20 51°24.134 2°49.822 349.3 12.6 345 22.2
2011-06-06 07:34:26 51°24.154 2°49.813 349.7 12.6 345 22.5
2011-06-06 07:34:30 51°24.167 2°49.808 350.1 12.5 346 22.4
2011-06-06 07:34:35 51°24.184 2°49.801 350.4 12.6 346 22.6
2011-06-06 07:34:40 51°24.201 2°49.794 350.5 12.6 346 22.3
2011-06-06 07:34:45 51°24.218 2°49.786 350.5 12.7 345 22.5
2011-06-06 07:34:50 51°24.235 2°49.78 350.7 12.6 346 22.1
2011-06-06 07:34:55 51°24.252 2°49.773 350.7 12.6 346 22.2
2011-06-06 07:35:00 51°24.27 2°49.766 350.8 12.6 347 22.1
2011-06-06 07:35:05 51°24.287 2°49.76 351.4 12.7 347 22.1
2011-06-06 07:35:10 51°24.304 2°49.753 351.5 12.7 347 22.2
2011-06-06 07:35:15 51°24.321 2°49.747 351.6 12.7 347 22.5
2011-06-06 07:35:20 51°24.338 2°49.74 351.6 12.8 347 22.7
2011-06-06 07:35:25 51°24.355 2°49.734 351.5 12.7 347 23
2011-06-06 07:35:30 51°24.372 2°49.727 351.4 12.6 346 23.2
2011-06-06 07:35:35 51°24.389 2°49.721 351.4 12.4 346 23.3
2011-06-06 07:35:40 51°24.406 2°49.714 351.4 12.5 347 22.5
2011-06-06 07:35:45 51°24.423 2°49.708 351.7 12.5 347 22.5
2011-06-06 07:35:50 51°24.44 2°49.702 351.8 12.6 347 22.1
2011-06-06 07:35:55 51°24.458 2°49.695 352.1 12.7 348 21.7
2011-06-06 07:36:00 51°24.474 2°49.689 352 12.1 347 21.9
2011-06-06 07:36:05 51°24.491 2°49.683 351.5 12.3 347 22.7
2011-06-06 07:36:10 51°24.508 2°49.677 351.4 12.4 347 22.4
2011-06-06 07:36:15 51°24.525 2°49.67 351.5 12.4 347 22.4
2011-06-06 07:36:19 51°24.538 2°49.665 351.9 12.4 348 23
2011-06-06 07:36:25 51°24.558 2°49.658 352 12.7 347 23
2011-06-06 07:36:30 51°24.575 2°49.651 351.7 12.6 346 23
2011-06-06 07:36:35 51°24.592 2°49.644 350.4 12.6 346 22.5
2011-06-06 07:36:40 51°24.609 2°49.637 350.7 12.5 345 22.4
2011-06-06 07:36:45 51°24.626 2°49.631 350.1 12.6 346 22.3
2011-06-06 07:36:50 51°24.642 2°49.624 350.1 12.6 346 22.3
2011-06-06 07:36:55 51°24.66 2°49.617 350.8 12.7 346 21.9
2011-06-06 07:37:00 51°24.676 2°49.611 350.1 12.5 346 21.7
2011-06-06 07:37:05 51°24.693 2°49.603 350.5 12.5 345 22.2
2011-06-06 07:37:11 51°24.713 2°49.594 349.8 12.5 345 22.7
2011-06-06 07:37:15 51°24.726 2°49.589 349.4 12.4 344 22.7
2011-06-06 07:37:20 51°24.743 2°49.581 349.4 12.6 344 22.4
2011-06-06 07:37:25 51°24.76 2°49.573 348.8 12.7 344 22.3
2011-06-06 07:37:30 51°24.777 2°49.566 348.6 12.7 343 22.2
2011-06-06 07:37:35 51°24.794 2°49.557 348.2 12.8 344 21.7
2011-06-06 07:37:40 51°24.811 2°49.549 348.4 12.7 343 22.1
2011-06-06 07:37:45 51°24.828 2°49.541 348.2 12.7 343 22.3
2011-06-06 07:37:50 51°24.845 2°49.533 348.1 12.7 343 22.4
2011-06-06 07:37:55 51°24.862 2°49.525 348.1 12.7 343 22.4
2011-06-06 07:38:00 51°24.879 2°49.517 347.7 12.8 344 22.2
2011-06-06 07:38:05 51°24.896 2°49.509 348.2 12.7 343 22
2011-06-06 07:38:10 51°24.912 2°49.5 348.1 12.7 344 22
2011-06-06 07:38:15 51°24.929 2°49.492 348.7 12.7 343 22.1
2011-06-06 07:38:20 51°24.946 2°49.484 349 12.8 344 22.2
2011-06-06 07:38:26 51°24.967 2°49.474 349.1 12.7 343 22.1
2011-06-06 07:38:30 51°24.98 2°49.468 348.9 12.7 343 22
2011-06-06 07:38:35 51°24.997 2°49.46 348.5 12.6 343 22.1
2011-06-06 07:38:40 51°25.014 2°49.451 348.3 12.6 343 22.5
2011-06-06 07:38:45 51°25.031 2°49.443 348.8 12.6 343 22.7
2011-06-06 07:38:50 51°25.047 2°49.435 349.1 12.6 343 22.6
2011-06-06 07:38:55 51°25.064 2°49.427 349.4 12.7 344 22.5
2011-06-06 07:38:59 51°25.078 2°49.421 349.7 12.7 344 21.9
2011-06-06 07:39:05 51°25.098 2°49.411 349.3 12.9 344 21.9
2011-06-06 07:39:10 51°25.116 2°49.404 349.7 12.7 345 21.7
2011-06-06 07:39:15 51°25.133 2°49.396 350.3 12.8 344 21.7
2011-06-06 07:39:20 51°25.15 2°49.389 350.3 12.6 345 22.2
2011-06-06 07:39:25 51°25.167 2°49.382 350.8 12.7 345 22.5
2011-06-06 07:39:31 51°25.187 2°49.374 351.2 12.8 346 22.5
2011-06-06 07:39:35 51°25.201 2°49.368 351.6 12.8 345 22.1
2011-06-06 07:39:40 51°25.218 2°49.361 351.9 12.8 346 21.9
2011-06-06 07:39:45 51°25.235 2°49.355 352.3 12.8 347 22.1
2011-06-06 07:39:50 51°25.253 2°49.348 352.8 12.7 346 22.1
2011-06-06 07:39:55 51°25.27 2°49.342 352.3 12.8 347 22.1
2011-06-06 07:39:59 51°25.283 2°49.337 352.3 12.8 347 22.8
2011-06-06 07:40:05 51°25.304 2°49.329 352.7 12.8 347 22.4
2011-06-06 07:40:10 51°25.321 2°49.322 352.6 12.6 347 22
2011-06-06 07:40:15 51°25.338 2°49.316 352.6 12.6 347 22.4
2011-06-06 07:40:20 51°25.355 2°49.309 352.7 12.7 346 23.3
2011-06-06 07:40:25 51°25.372 2°49.302 352 12.8 345 23.1
2011-06-06 07:40:30 51°25.389 2°49.295 351.4 12.8 346 23.7
2011-06-06 07:40:35 51°25.406 2°49.287 351.4 12.7 345 23.3
2011-06-06 07:40:40 51°25.423 2°49.281 351.4 12.6 345 22.3
2011-06-06 07:40:46 51°25.443 2°49.273 351.2 12.5 346 22.3
2011-06-06 07:40:50 51°25.457 2°49.267 351.4 12.5 345 22.6
2011-06-06 07:40:55 51°25.474 2°49.26 351.2 12.5 345 22.7
2011-06-06 07:41:00 51°25.49 2°49.253 351.2 12.6 346 23.2
2011-06-06 07:41:05 51°25.507 2°49.245 351.2 12.6 344 23.1
2011-06-06 07:41:10 51°25.524 2°49.237 350.7 12.5 343 23.3
2011-06-06 07:41:15 51°25.54 2°49.226 346.4 12.7 335 22.7
2011-06-06 07:41:20 51°25.556 2°49.213 341.2 12.8 334 22.8
2011-06-06 07:41:25 51°25.571 2°49.198 338 13 328 22.9
2011-06-06 07:41:30 51°25.587 2°49.183 335.1 12.8 328 22.5
2011-06-06 07:41:35 51°25.601 2°49.166 331.2 13 323 23
2011-06-06 07:41:40 51°25.615 2°49.149 328.9 13 324 23.2
2011-06-06 07:41:45 51°25.629 2°49.13 327.1 13.1 320 23.6
2011-06-06 07:41:50 51°25.644 2°49.112 325.3 13.2 320 23.8
2011-06-06 07:41:55 51°25.657 2°49.092 324.1 13.2 318 23.4
2011-06-06 07:42:00 51°25.671 2°49.072 322.5 13.2 318 23.1
2011-06-06 07:42:05 51°25.683 2°49.051 320.9 13.4 314 24
2011-06-06 07:42:10 51°25.697 2°49.031 320.5 13.1 315 23.5
2011-06-06 07:42:15 51°25.709 2°49.01 319.4 13.2 313 23.4
2011-06-06 07:42:20 51°25.722 2°48.989 318.5 13 314 24
2011-06-06 07:42:25 51°25.735 2°48.968 318.3 13.2 314 24.5
2011-06-06 07:42:30 51°25.747 2°48.947 318.6 13.1 313 24.4
2011-06-06 07:42:35 51°25.76 2°48.927 318.3 12.7 314 24.6
2011-06-06 07:42:40 51°25.772 2°48.907 318.3 12.5 314 24.7
2011-06-06 07:42:45 51°25.784 2°48.887 318.9 12.4 314 24.6
2011-06-06 07:42:50 51°25.796 2°48.868 319.4 12.1 314 24.1
2011-06-06 07:42:55 51°25.807 2°48.849 319.4 12.1 315 23.9
2011-06-06 07:43:00 51°25.819 2°48.831 319.4 12 316 23.5
2011-06-06 07:43:05 51°25.831 2°48.812 319.7 11.9 316 23.6
2011-06-06 07:43:10 51°25.842 2°48.794 320.3 11.9 315 23.9
2011-06-06 07:43:15 51°25.854 2°48.775 320.7 11.8 316 23.8
2011-06-06 07:43:20 51°25.866 2°48.757 320.5 11.5 315 23.5
2011-06-06 07:43:25 51°25.877 2°48.739 320.3 11.2 316 23.9
2011-06-06 07:43:30 51°25.887 2°48.723 320.2 10.7 314 24.2
2011-06-06 07:43:35 51°25.897 2°48.706 320.2 10.3 315 24.1
2011-06-06 07:43:40 51°25.907 2°48.691 320.6 10 315 23.5
2011-06-06 07:43:45 51°25.917 2°48.675 320.2 9.5 314 23.1
2011-06-06 07:43:51 51°25.927 2°48.658 320.5 9.1 314 23.4
2011-06-06 07:43:55 51°25.934 2°48.647 320.3 8.7 314 23.5
2011-06-06 07:44:00 51°25.942 2°48.634 320.8 8.3 314 23.5
2011-06-06 07:44:05 51°25.95 2°48.622 321.6 7.7 315 23.3
2011-06-06 07:44:10 51°25.957 2°48.61 321.9 7.4 315 23.2
2011-06-06 07:44:15 51°25.964 2°48.599 322.7 7.2 315 23.7
2011-06-06 07:44:19 51°25.969 2°48.59 323.4 6.8 315 24.1
2011-06-06 07:44:25 51°25.977 2°48.578 323.8 6.6 317 24
2011-06-06 07:44:30 51°25.984 2°48.568 324.5 6.3 317 23.8
2011-06-06 07:44:35 51°25.99 2°48.559 325.2 6.2 316 23.7
2011-06-06 07:44:40 51°25.996 2°48.55 325.5 5.8 317 23.4
2011-06-06 07:44:45 51°26.002 2°48.542 326.2 5.5 316 23.8
2011-06-06 07:44:50 51°26.007 2°48.534 326.6 5.4 316 23.6
2011-06-06 07:44:55 51°26.012 2°48.526 326.8 5.1 315 23.5
2011-06-06 07:45:00 51°26.017 2°48.519 326.8 4.7 317 23.4
2011-06-06 07:45:06 51°26.023 2°48.51 327.4 4.8 317 21.9
2011-06-06 07:45:10 51°26.027 2°48.504 329.6 4.7 320 21.9
2011-06-06 07:45:15 51°26.032 2°48.499 334 4.5 326 22.9
2011-06-06 07:45:20 51°26.037 2°48.494 339.5 4.4 329 23
2011-06-06 07:45:25 51°26.043 2°48.49 345.4 4.3 337 23
2011-06-06 07:45:30 51°26.048 2°48.488 351.7 4.2 344 23.6
2011-06-06 07:45:35 51°26.053 2°48.486 358.3 3.9 347 24
2011-06-06 07:45:40 51°26.058 2°48.485 5.2 3.8 354 23.2
2011-06-06 07:45:45 51°26.064 2°48.485 12.1 3.6 2 23.6
2011-06-06 07:45:50 51°26.068 2°48.486 18.7 3.4 13 23.6
2011-06-06 07:45:55 51°26.073 2°48.488 25.3 3.2 12 23.6
2011-06-06 07:46:00 51°26.077 2°48.491 31.4 3.2 23 22.3
2011-06-06 07:46:05 51°26.081 2°48.495 38.3 3 30 20.7
2011-06-06 07:46:10 51°26.084 2°48.499 45.6 2.8 43 21.7
2011-06-06 07:46:15 51°26.086 2°48.503 52.1 2.8 43 22.2
2011-06-06 07:46:20 51°26.088 2°48.508 58.2 2.6 56 22.5
2011-06-06 07:46:25 51°26.09 2°48.512 63.7 2.3 65 23.5
2011-06-06 07:46:30 51°26.091 2°48.516 68.2 2 68 23.5
2011-06-06 07:46:35 51°26.092 2°48.52 73.9 1.8 67 23.1
2011-06-06 07:46:40 51°26.092 2°48.523 76.9 1.5 68 23.1
2011-06-06 07:46:45 51°26.092 2°48.526 79.3 1.1 91 23.6
2011-06-06 07:46:50 51°26.093 2°48.528 81.2 0.8 81 23.3
2011-06-06 07:46:55 51°26.092 2°48.529 83.4 0.5 106 23.5
2011-06-06 07:46:59 51°26.093 2°48.529 86.1 0.1 139 23.5
2011-06-06 07:47:05 51°26.092 2°48.529 88.4 0.2 209 23.1
2011-06-06 07:47:10 51°26.092 2°48.529 90.1 0.5 195 23.4
2011-06-06 07:47:15 51°26.091 2°48.529 93 0.3 209 23.1
2011-06-06 07:47:20 51°26.091 2°48.528 95.2 0.7 194 23.6
2011-06-06 07:47:26 51°26.09 2°48.528 96.9 0.4 192 23.6
2011-06-06 07:47:30 51°26.089 2°48.528 99.1 0.4 185 23.5
2011-06-06 07:47:35 51°26.089 2°48.528 99.8 0.8 200 23.7
2011-06-06 07:47:40 51°26.088 2°48.527 101.8 0.6 203 23.6
2011-06-06 07:47:45 51°26.088 2°48.527 103.7 0.4 198 22.5
2011-06-06 07:47:50 51°26.086 2°48.526 105.1 0.8 203 22.8
2011-06-06 07:47:55 51°26.086 2°48.525 106.2 0.5 210 23.1
2011-06-06 07:47:59 51°26.085 2°48.525 108.2 0.8 196 22.9
2011-06-06 07:48:05 51°26.084 2°48.524 109.6 0.6 193 22.4
2011-06-06 07:48:10 51°26.083 2°48.523 110.1 0.7 199 22.7
2011-06-06 07:48:15 51°26.082 2°48.523 109.8 0.6 208 22.3
2011-06-06 07:48:20 51°26.081 2°48.522 110.8 0.5 210 21.8
2011-06-06 07:48:25 51°26.08 2°48.521 111 1 209 22.2
2011-06-06 07:48:31 51°26.079 2°48.521 111 0.6 211 21.6
2011-06-06 07:48:35 51°26.079 2°48.52 111.4 0.8 206 21.3
2011-06-06 07:48:40 51°26.078 2°48.519 110.9 0.8 209 21.3
2011-06-06 07:48:45 51°26.077 2°48.518 111.1 0.8 209 21.5
2011-06-06 07:48:50 51°26.076 2°48.518 110.5 0.8 208 21.6
2011-06-06 07:48:55 51°26.075 2°48.516 110.2 0.6 215 21.9
2011-06-06 07:49:00 51°26.074 2°48.515 109.3 0.9 211 22
2011-06-06 07:49:05 51°26.074 2°48.515 109.1 0.6 220 22.1
2011-06-06 07:49:10 51°26.073 2°48.513 109 0.7 216 22.7
2011-06-06 07:49:15 51°26.072 2°48.513 108.4 0.6 227 22.8
2011-06-06 07:49:20 51°26.071 2°48.511 108.3 0.6 221 22.9
2011-06-06 07:49:25 51°26.07 2°48.51 107.3 1 214 23.4
2011-06-06 07:49:30 51°26.07 2°48.51 107.4 0.7 229 23
2011-06-06 07:49:35 51°26.069 2°48.508 106.6 1 220 23.2
2011-06-06 07:49:40 51°26.068 2°48.507 106.1 0.9 221 23.3
2011-06-06 07:49:45 51°26.067 2°48.506 106.7 0.7 226 23
2011-06-06 07:49:50 51°26.066 2°48.504 106.6 0.7 223 23.2
2011-06-06 07:49:55 51°26.066 2°48.503 106.3 0.8 221 23.5
2011-06-06 07:50:00 51°26.065 2°48.502 106.4 0.8 228 23.7
2011-06-06 07:50:05 51°26.064 2°48.501 106.1 0.9 228 23.6
2011-06-06 07:50:10 51°26.064 2°48.499 106.3 0.8 231 23
2011-06-06 07:50:15 51°26.063 2°48.498 106.3 0.9 225 23.4
2011-06-06 07:50:20 51°26.062 2°48.497 106.1 0.8 234 23.8
2011-06-06 07:50:25 51°26.061 2°48.495 105.8 0.7 230 23.7
2011-06-06 07:50:30 51°26.06 2°48.494 105.8 1 217 23.4
2011-06-06 07:50:35 51°26.06 2°48.493 105.5 0.6 244 23.1
2011-06-06 07:50:40 51°26.059 2°48.492 104.6 0.9 229 23.5
2011-06-06 07:50:45 51°26.058 2°48.49 104.5 0.9 224 23.7
2011-06-06 07:50:50 51°26.058 2°48.489 104.1 0.9 227 23.4
2011-06-06 07:50:55 51°26.057 2°48.487 103.7 0.8 233 23.3
2011-06-06 07:51:00 51°26.056 2°48.486 103.2 0.9 229 23.5
2011-06-06 07:51:05 51°26.056 2°48.485 103.3 0.8 229 23.4
2011-06-06 07:51:10 51°26.055 2°48.483 103.2 0.8 235 23.2
2011-06-06 07:51:15 51°26.054 2°48.482 102.9 0.8 228 23.1
2011-06-06 07:51:20 51°26.053 2°48.48 102.8 0.9 228 23.2
2011-06-06 07:51:25 51°26.053 2°48.478 102.6 0.9 230 23.3
2011-06-06 07:51:30 51°26.052 2°48.477 102.4 0.9 233 23.2
2011-06-06 07:51:35 51°26.051 2°48.476 102.4 0.9 227 23.4
2011-06-06 07:51:40 51°26.05 2°48.474 102.2 1 230 23.5
2011-06-06 07:51:45 51°26.05 2°48.472 102.4 0.9 233 23.7
2011-06-06 07:51:50 51°26.049 2°48.471 103.1 1 231 23.3
2011-06-06 07:51:55 51°26.048 2°48.469 103.5 0.9 234 23.4
2011-06-06 07:51:59 51°26.048 2°48.468 104 0.8 243 23.2
2011-06-06 07:52:05 51°26.046 2°48.465 104.2 1 231 23.4
2011-06-06 07:52:10 51°26.046 2°48.464 104.2 1.2 225 23.3
2011-06-06 07:52:15 51°26.045 2°48.463 105.2 0.6 249 22.3
2011-06-06 07:52:20 51°26.044 2°48.461 105 1.2 226 23.3
2011-06-06 07:52:26 51°26.043 2°48.459 104.9 1.2 229 23.6
2011-06-06 07:52:30 51°26.043 2°48.458 106.4 0.7 257 22.4
2011-06-06 07:52:35 51°26.042 2°48.455 106.4 1.3 227 23
2011-06-06 07:52:40 51°26.041 2°48.454 106.6 1 238 22.9
2011-06-06 07:52:45 51°26.041 2°48.452 106.8 0.8 235 22.6
2011-06-06 07:52:50 51°26.04 2°48.45 107.1 0.9 231 22.3
2011-06-06 07:52:55 51°26.039 2°48.449 106.7 0.9 237 22.2
2011-06-06 07:52:59 51°26.038 2°48.447 106.2 0.8 238 21.6
2011-06-06 07:53:05 51°26.037 2°48.445 106.2 1.1 231 21.6
2011-06-06 07:53:10 51°26.037 2°48.444 106.2 1.1 236 21.7
2011-06-06 07:53:15 51°26.036 2°48.442 107 1 238 22
2011-06-06 07:53:20 51°26.035 2°48.44 107.3 0.9 238 21.9
2011-06-06 07:53:25 51°26.034 2°48.438 107.5 1.1 234 22.2
2011-06-06 07:53:30 51°26.033 2°48.436 107.9 1.1 234 22.4
2011-06-06 07:53:35 51°26.032 2°48.434 108.9 1.1 231 22.7
2011-06-06 07:53:40 51°26.031 2°48.433 109.1 1 232 23